Content
SEND FEEDBACK

Daily
Averages
Monthly
Summary
United Kingdom

ASHINGTON, ENGLAND


Home > Europe > United Kingdom > England
Elevation: 137 feet     Latitude: 55 18N     Longitude: 001 38W

WEATHER
 
SELECT A DAY
Number of Records: 281,401;   Date Range: 7/1/96 - 4/15/14
 
SHARE

PRINT THIS DATA

[ ← Previous Day ]
WEATHER ALMANAC - OCTOBER 8, 2013
[ Next Day → ]
[ °C ]   °F
We're sorry. There is no daily almanac available for Ashington, England on October 8, 2013.
WEATHER BY HOUR - OCTOBER 8, 2013
[ °C ]   °F
Local TimeTemperatureDewpointHumidityBarometerVisibilityWind DirectionWind SpeedGust SpeedPrecipitationEventsConditions
12:50 AM60.8 °F55.4 °F82 %30.04 in6.2 miSSW (200°)10.4 mphPartly Cloudy
1:20 AM60.8 °F55.4 °F82 %30.04 in6.2 miSW (220°)6.9 mphPartly Cloudy
1:50 AM60.8 °F57.2 °F88 %30.04 in6.2 miWSW (240°)8.1 mphPartly Cloudy
2:20 AM62.6 °F57.2 °F82 %30.04 in6.2 miSW (220°)12.7 mphScattered Clouds
2:50 AM60.8 °F57.2 °F88 %30.04 in6.2 miSW (220°)11.5 mphPartly Cloudy
3:20 AM60.8 °F57.2 °F88 %30.04 in6.2 miSSW (210°)5.8 mphPartly Cloudy
3:50 AM59.0 °F57.2 °F94 %30.04 in6.2 miSW (220°)9.2 mphPartly Cloudy
4:50 AM59.0 °F55.4 °F88 %30.04 in6.2 miWSW (240°)6.9 mphPartly Cloudy
5:50 AM59.0 °F55.4 °F88 %30.04 in6.2 miSW (230°)6.9 mphRainLight Rain
6:20 AM59.0 °F55.4 °F88 %30.06 in6.2 miWSW (250°)9.2 mphMostly Cloudy
6:50 AM59.0 °F53.6 °F82 %30.06 in6.2 miWest (260°)12.7 mphScattered Clouds
7:20 AM59.0 °F53.6 °F82 %30.06 in6.2 miWSW (240°)9.2 mphScattered Clouds
7:50 AM59.0 °F53.6 °F82 %30.09 in6.2 miWSW (250°)9.2 mphPartly Cloudy
8:20 AM57.2 °F53.6 °F88 %30.09 in6.2 miWSW (250°)13.8 mphPartly Cloudy
8:50 AM59.0 °F53.6 °F82 %30.09 in6.2 miWSW (250°)13.8 mphPartly Cloudy
9:20 AM59.0 °F53.6 °F82 %30.09 in6.2 miWest (260°)18.4 mphPartly Cloudy
9:50 AM59.0 °F53.6 °F82 %30.09 in6.2 miWest (260°)17.3 mphPartly Cloudy
10:20 AM60.8 °F53.6 °F77 %30.09 in6.2 miWest (260°)15.0 mphPartly Cloudy
10:50 AM60.8 °F53.6 °F77 %30.09 in6.2 miWSW (250°)16.1 mphPartly Cloudy
11:20 AM60.8 °F53.6 °F77 %30.12 in6.2 miWest (260°)15.0 mphScattered Clouds
11:50 AM60.8 °F53.6 °F77 %30.12 in6.2 miWest (270°)19.6 mphPartly Cloudy
12:20 PM60.8 °F51.8 °F72 %30.12 in6.2 miWest (270°)18.4 mphScattered Clouds
12:50 PM60.8 °F51.8 °F72 %30.12 in6.2 miWest (260°)17.3 mphScattered Clouds
1:20 PM60.8 °F50.0 °F68 %30.12 in6.2 miWest (270°)23.0 mphScattered Clouds
1:50 PM60.8 °F51.8 °F72 %30.09 in6.2 miWest (270°)24.2 mphPartly Cloudy
2:20 PM60.8 °F50.0 °F68 %30.12 in6.2 miWest (270°)20.7 mphPartly Cloudy
2:50 PM62.6 °F51.8 °F68 %30.12 in6.2 miWest (270°)15.0 mphPartly Cloudy
3:20 PM60.8 °F51.8 °F72 %30.12 in6.2 miWest (260°)17.3 mphPartly Cloudy
3:50 PM60.8 °F50.0 °F68 %30.12 in6.2 miWest (260°)19.6 mphPartly Cloudy
4:50 PM57.2 °F50.0 °F77 %30.12 in6.2 miWSW (250°)18.4 mphPartly Cloudy
5:20 PM57.2 °F50.0 °F77 %30.12 in6.2 miWSW (250°)17.3 mphPartly Cloudy
5:50 PM55.4 °F50.0 °F82 %30.12 in6.2 miWSW (240°)17.3 mphPartly Cloudy
6:20 PM55.4 °F50.0 °F82 %30.12 in6.2 miWSW (250°)15.0 mphPartly Cloudy
6:50 PM55.4 °F50.0 °F82 %30.15 in6.2 miWSW (250°)12.7 mphScattered Clouds
7:20 PM55.4 °F50.0 °F82 %30.15 in6.2 miWSW (250°)13.8 mphMostly Cloudy
7:50 PM55.4 °F50.0 °F82 %30.15 in6.2 miWest (270°)12.7 mphMostly Cloudy
8:20 PM53.6 °F48.2 °F82 %30.15 in6.2 miWest (270°)12.7 mphPartly Cloudy
8:50 PM51.8 °F46.4 °F82 %30.15 in6.2 miWest (280°)10.4 mphPartly Cloudy
9:20 PM50.0 °F46.4 °F87 %30.15 in6.2 miWest (260°)9.2 mphPartly Cloudy
9:50 PM51.8 °F46.4 °F82 %30.15 in6.2 miWest (270°)10.4 mphPartly Cloudy
10:20 PM51.8 °F46.4 °F82 %30.15 in6.2 miWest (260°)12.7 mphPartly Cloudy
10:50 PM51.8 °F44.6 °F76 %30.15 in6.2 miWest (260°)15.0 mphPartly Cloudy
11:20 PM51.8 °F44.6 °F76 %30.15 in6.2 miWest (260°)13.8 mphPartly Cloudy
11:50 PM51.8 °F44.6 °F76 %30.15 in6.2 miWest (270°)15.0 mphPartly Cloudy
Hourly data recorded from EGNT, located 18.41 miles away from Ashington, England







STORIES FROM OUR PARTNERS